CCR1019 SJRG-SSBN

Flight info

Callsign CCR1019
Flight time 0h 35m
Altitude 15000
Route 3122S05158W DCT 3023S05107W
Aircraft TBM9/L-SDFGRWY/S

Departure

Time 2026-04-18 11:47
Airport Rio Grande Regional Airport (SJRG)

Arrival

Time 2026-04-18 12:22
Airport Belém Novo Airport (SSBN)
Time Latitude Longitude Altitude Speed Heading
2026-04-18 11:34 -32.08251 -52.16359 28 ft 0 kts 312°
2026-04-18 11:44 -32.08228 -52.16359 29 ft 7 kts 26°
2026-04-18 11:45 -32.08135 -52.16391 34 ft 21 kts 310°
2026-04-18 11:45 -32.08165 -52.16562 32 ft 43 kts 250°
2026-04-18 11:45 -32.08343 -52.16754 29 ft 33 kts 220°
2026-04-18 11:45 -32.08509 -52.16943 31 ft 33 kts 231°
2026-04-18 11:46 -32.08672 -52.17121 33 ft 32 kts 219°
2026-04-18 11:46 -32.08809 -52.17280 33 ft 4 kts 279°
2026-04-18 11:46 -32.08808 -52.17281 33 ft 0 kts 297°
2026-04-18 11:46 -32.08769 -52.17251 34 ft 13 kts 42°
2026-04-18 11:47 -32.08553 -52.16997 31 ft 78 kts 43°
2026-04-18 11:47 -32.08037 -52.16391 87 ft 128 kts 42°
2026-04-18 11:47 -32.07290 -52.15566 114 ft 167 kts 30°
2026-04-18 11:47 -32.06252 -52.15279 685 ft 261 kts 353°
2026-04-18 11:48 -32.04453 -52.15478 697 ft 256 kts 351°
2026-04-18 11:48 -32.02700 -52.15692 698 ft 251 kts 351°
2026-04-18 11:48 -32.00970 -52.15529 711 ft 257 kts 14°
2026-04-18 11:48 -31.99332 -52.14656 712 ft 258 kts 23°
2026-04-18 11:49 -31.97665 -52.13934 736 ft 252 kts 12°
2026-04-18 11:49 -31.95947 -52.13545 735 ft 250 kts
2026-04-18 11:49 -31.94268 -52.13020 777 ft 252 kts 19°
2026-04-18 11:49 -31.92574 -52.12476 762 ft 253 kts
2026-04-18 11:50 -31.90836 -52.12129 767 ft 254 kts
2026-04-18 11:50 -31.89115 -52.11638 819 ft 255 kts 13°
2026-04-18 11:50 -31.87396 -52.11096 845 ft 256 kts 12°
2026-04-18 11:50 -31.85685 -52.10608 830 ft 258 kts 10°
2026-04-18 11:51 -31.83916 -52.10112 852 ft 258 kts 10°
2026-04-18 11:51 -31.82193 -52.09616 876 ft 258 kts 10°
2026-04-18 11:51 -31.80447 -52.09176 886 ft 256 kts 15°
2026-04-18 11:51 -31.78740 -52.08555 875 ft 257 kts 12°
2026-04-18 11:52 -31.77000 -52.08164 925 ft 253 kts
2026-04-18 11:52 -31.75305 -52.07656 1182 ft 250 kts 11°
2026-04-18 11:52 -31.73629 -52.07145 1427 ft 248 kts 10°
2026-04-18 11:52 -31.71948 -52.06682 1680 ft 248 kts
2026-04-18 11:53 -31.70264 -52.06210 1926 ft 249 kts 10°
2026-04-18 11:53 -31.68586 -52.05710 2174 ft 249 kts 10°
2026-04-18 11:53 -31.66898 -52.05247 2424 ft 250 kts
2026-04-18 11:53 -31.65200 -52.04778 2674 ft 252 kts 11°
2026-04-18 11:54 -31.63489 -52.04276 2944 ft 255 kts 11°
2026-04-18 11:54 -31.61759 -52.03779 3198 ft 257 kts 11°
2026-04-18 11:54 -31.60007 -52.03283 3439 ft 260 kts 11°
2026-04-18 11:54 -31.58244 -52.02779 3678 ft 261 kts 12°
2026-04-18 11:55 -31.56486 -52.02270 3922 ft 260 kts 11°
2026-04-18 11:55 -31.54724 -52.01779 4170 ft 261 kts 12°
2026-04-18 11:55 -31.52956 -52.01273 4420 ft 262 kts 12°
2026-04-18 11:55 -31.51181 -52.00768 4623 ft 264 kts 12°
2026-04-18 11:56 -31.49388 -52.00257 4836 ft 265 kts 12°
2026-04-18 11:56 -31.47589 -51.99745 5058 ft 267 kts 12°
2026-04-18 11:56 -31.45800 -51.99238 5260 ft 269 kts 12°
2026-04-18 11:56 -31.43955 -51.98713 5474 ft 270 kts 12°
2026-04-18 11:57 -31.42145 -51.98198 5676 ft 272 kts 12°
2026-04-18 11:57 -31.40276 -51.97668 5870 ft 274 kts 12°
2026-04-18 11:57 -31.38420 -51.97141 6058 ft 275 kts 12°
2026-04-18 11:57 -31.36621 -51.96447 6275 ft 278 kts 27°
2026-04-18 11:58 -31.35007 -51.95190 6456 ft 280 kts 39°
2026-04-18 11:58 -31.33452 -51.93817 6633 ft 280 kts 38°
2026-04-18 11:58 -31.31884 -51.92454 6816 ft 281 kts 38°
2026-04-18 11:58 -31.30312 -51.91082 6995 ft 282 kts 38°
2026-04-18 11:59 -31.28779 -51.89741 7521 ft 268 kts 37°
2026-04-18 11:59 -31.27307 -51.88461 8068 ft 260 kts 37°
2026-04-18 11:59 -31.25874 -51.87211 8632 ft 254 kts 37°
2026-04-18 11:59 -31.24470 -51.85987 9200 ft 250 kts 36°
2026-04-18 12:00 -31.23082 -51.84776 9777 ft 247 kts 36°
2026-04-18 12:00 -31.21713 -51.83581 10311 ft 245 kts 35°
2026-04-18 12:00 -31.20353 -51.82398 10852 ft 243 kts 34°
2026-04-18 12:00 -31.19005 -51.81224 11400 ft 241 kts 34°
2026-04-18 12:01 -31.16342 -51.78904 12528 ft 237 kts 33°
2026-04-18 12:01 -31.15025 -51.77758 13110 ft 235 kts 32°
2026-04-18 12:01 -31.13717 -51.76621 13696 ft 234 kts 31°
2026-04-18 12:02 -31.12419 -51.75491 14225 ft 232 kts 32°
2026-04-18 12:02 -31.11124 -51.74365 14758 ft 231 kts 32°
2026-04-18 12:02 -31.09787 -51.73205 14918 ft 252 kts 33°
2026-04-18 12:02 -31.08319 -51.71925 14934 ft 274 kts 33°
2026-04-18 12:03 -31.06745 -51.70548 14930 ft 290 kts 34°
2026-04-18 12:03 -31.05100 -51.69113 14929 ft 300 kts 34°
2026-04-18 12:03 -31.03426 -51.67658 14929 ft 307 kts 34°
2026-04-18 12:03 -31.01701 -51.66159 14918 ft 312 kts 34°
2026-04-18 12:04 -30.99953 -51.64643 14923 ft 314 kts 34°
2026-04-18 12:04 -30.98195 -51.63117 14925 ft 316 kts 34°
2026-04-18 12:04 -30.96427 -51.61585 14923 ft 317 kts 34°
2026-04-18 12:04 -30.94652 -51.60046 14929 ft 318 kts 34°
2026-04-18 12:05 -30.92876 -51.58509 14927 ft 318 kts 34°
2026-04-18 12:05 -30.91094 -51.56967 14924 ft 319 kts 34°
2026-04-18 12:05 -30.89316 -51.55428 14925 ft 319 kts 34°
2026-04-18 12:05 -30.87534 -51.53888 14924 ft 319 kts 34°
2026-04-18 12:06 -30.85751 -51.52348 14920 ft 319 kts 34°
2026-04-18 12:06 -30.83968 -51.50806 14918 ft 319 kts 34°
2026-04-18 12:06 -30.82187 -51.49269 14919 ft 319 kts 34°
2026-04-18 12:06 -30.80403 -51.47730 14918 ft 319 kts 34°
2026-04-18 12:07 -30.78621 -51.46193 14916 ft 319 kts 34°
2026-04-18 12:07 -30.76840 -51.44658 14915 ft 319 kts 34°
2026-04-18 12:07 -30.75058 -51.43122 14911 ft 319 kts 34°
2026-04-18 12:07 -30.73284 -51.41593 14909 ft 308 kts 34°
2026-04-18 12:08 -30.71627 -51.40154 14407 ft 295 kts 33°
2026-04-18 12:08 -30.70527 -51.39211 13840 ft 297 kts 33°
2026-04-18 12:08 -30.68866 -51.37795 13048 ft 294 kts 33°
2026-04-18 12:08 -30.67234 -51.36392 12255 ft 291 kts 34°
2026-04-18 12:09 -30.65615 -51.34997 11479 ft 288 kts 34°
2026-04-18 12:09 -30.64013 -51.33621 10741 ft 286 kts 35°
2026-04-18 12:09 -30.62421 -51.32255 9995 ft 285 kts 36°
2026-04-18 12:09 -30.60832 -51.30891 9242 ft 281 kts 36°
2026-04-18 12:10 -30.59274 -51.29552 8533 ft 277 kts 36°
2026-04-18 12:10 -30.57739 -51.28236 7835 ft 271 kts 36°
2026-04-18 12:10 -30.56235 -51.26946 7150 ft 267 kts 36°
2026-04-18 12:10 -30.54755 -51.25678 6501 ft 262 kts 36°
2026-04-18 12:11 -30.53302 -51.24433 5801 ft 257 kts 36°
2026-04-18 12:11 -30.51888 -51.23221 5103 ft 253 kts 36°
2026-04-18 12:11 -30.50517 -51.22050 4934 ft 228 kts 35°
2026-04-18 12:11 -30.49321 -51.21035 4999 ft 201 kts 35°
2026-04-18 12:12 -30.48249 -51.20121 5001 ft 183 kts 35°
2026-04-18 12:12 -30.47248 -51.19272 5004 ft 185 kts 34°
2026-04-18 12:12 -30.46115 -51.18310 5016 ft 214 kts 36°
2026-04-18 12:12 -30.44887 -51.17247 5029 ft 226 kts 36°
2026-04-18 12:13 -30.43603 -51.16143 5030 ft 233 kts 36°
2026-04-18 12:13 -30.42281 -51.15014 5026 ft 238 kts 36°
2026-04-18 12:13 -30.40942 -51.13870 5026 ft 240 kts 36°
2026-04-18 12:13 -30.39550 -51.12809 5011 ft 239 kts 22°
2026-04-18 12:14 -30.37956 -51.12378 5006 ft 234 kts
2026-04-18 12:14 -30.36339 -51.12190 4899 ft 226 kts
2026-04-18 12:14 -30.34840 -51.11984 4661 ft 213 kts
2026-04-18 12:14 -30.33402 -51.11720 4398 ft 207 kts
2026-04-18 12:15 -30.32014 -51.11456 4127 ft 189 kts
2026-04-18 12:15 -30.30792 -51.11229 4007 ft 167 kts
2026-04-18 12:15 -30.29698 -51.11032 4005 ft 153 kts
2026-04-18 12:15 -30.28675 -51.10849 4009 ft 150 kts
2026-04-18 12:16 -30.27482 -51.10651 3910 ft 184 kts
2026-04-18 12:16 -30.26254 -51.10400 3578 ft 177 kts
2026-04-18 12:16 -30.25013 -51.10170 3248 ft 178 kts
2026-04-18 12:16 -30.23788 -51.09944 2785 ft 177 kts
2026-04-18 12:17 -30.22561 -51.09714 2233 ft 175 kts
2026-04-18 12:17 -30.21443 -51.09503 2079 ft 152 kts
2026-04-18 12:17 -30.20497 -51.09328 2001 ft 124 kts
2026-04-18 12:17 -30.19738 -51.09190 1984 ft 96 kts 358°
2026-04-18 12:18 -30.19114 -51.09093 1964 ft 93 kts 356°
2026-04-18 12:18 -30.18459 -51.08977 1863 ft 93 kts
2026-04-18 12:18 -30.17866 -51.08864 1766 ft 84 kts 355°
2026-04-18 12:18 -30.17240 -51.08825 1665 ft 93 kts 339°
2026-04-18 12:19 -30.16712 -51.09200 1522 ft 89 kts 301°
2026-04-18 12:19 -30.16489 -51.09838 1410 ft 86 kts 272°
2026-04-18 12:19 -30.16617 -51.10510 1287 ft 87 kts 250°
2026-04-18 12:19 -30.16821 -51.11175 1163 ft 87 kts 252°
2026-04-18 12:20 -30.17021 -51.11826 1049 ft 85 kts 248°
2026-04-18 12:20 -30.17211 -51.12469 928 ft 82 kts 254°
2026-04-18 12:20 -30.17386 -51.13085 826 ft 80 kts 255°
2026-04-18 12:20 -30.17567 -51.13693 725 ft 81 kts 254°
2026-04-18 12:21 -30.17757 -51.14334 623 ft 88 kts 255°
2026-04-18 12:21 -30.17948 -51.14989 501 ft 82 kts 255°
2026-04-18 12:21 -30.18120 -51.15601 407 ft 78 kts 258°
2026-04-18 12:21 -30.18304 -51.16197 292 ft 79 kts 253°
2026-04-18 12:22 -30.18482 -51.16784 197 ft 78 kts 256°
2026-04-18 12:22 -30.18653 -51.17357 89 ft 74 kts 254°
2026-04-18 12:22 -30.18817 -51.17919 14 ft 68 kts 258°
2026-04-18 12:22 -30.18919 -51.18287 14 ft 20 kts 249°
2026-04-18 12:23 -30.18941 -51.18343 15 ft 22 kts 250°
2026-04-18 12:23 -30.19002 -51.18563 19 ft 23 kts 252°
2026-04-18 12:23 -30.18940 -51.18630 19 ft 18 kts 30°
2026-04-18 12:23 -30.18884 -51.18497 17 ft 20 kts 69°
2026-04-18 12:24 -30.18841 -51.18330 14 ft 23 kts 71°
2026-04-18 12:24 -30.18793 -51.18167 13 ft 13 kts 75°
2026-04-18 12:24 -30.18746 -51.18129 13 ft 7 kts 354°
2026-04-18 12:24 -30.18723 -51.18101 12 ft 1 kts 65°
2026-04-18 12:25 -30.18725 -51.18088 12 ft 3 kts 162°
2026-04-18 12:25 -30.18727 -51.18087 12 ft 0 kts 162°